Location: Saint-Usage
(47.1052°N, 5.2587°E)
Time: 16:37:53
(UTC+02:00)

X-37B - Pass Details

Date: 03 October 2021
Orbit: 385 x 389 km, 45.0° (Epoch: 17 October)

Event Time Altitude Azimuth Distance (km) Brightness Sun altitude
Exits shadow 05:57:24 25° 176° (S) 822 2.1 -18.2°
Drops below altitude 10° 05:59:27 10° 141° (SE) 1,409 3.7 -17.9°
Sets 06:01:40 0° 129° (SE) 2,261 5.0 -17.5°
